Regional Weather Roundup
Issued by NWS

Home | Current Version | Previous Version | Text Only | Print | Product List | Glossary Off
Versions: 1 2 3 4 5 6 7 8 9 10 11 12 13 14 15 16 17 18 19 20 21 22 23 24 25 26 27 28 29 30 31 32 33 34 35 36 37 38 39 40 41 42 43 44 45 46 47 48 49 50

000
ASUS43 KOAX 220710
RWRNE

WEATHER ROUNDUP FOR NEBRASKA
NATIONAL WEATHER SERVICE OMAHA NE
200 AM CDT MON SEP 22 2014

NOTES: SATELLITE DATA IS BEING USED TO AUGMENT CLOUD COVER ABOVE
       12000 FEET.
       "FAIR" INDICATES FEW OR NO CLOUDS BELOW 12,000 FEET WITH NO
       SIGNIFICANT WEATHER AND/OR OBSTRUCTIONS TO VISIBILITY.

  * THESE STATIONS DO NOT REPORT WEATHER SUCH AS RAIN...SNOW OR FOG.

NEZ001>004-019>022-054>056-220800-
NEBRASKA PANHANDLE

CITY           SKY/WX    TMP DP  RH WIND       PRES   REMARKS
SCOTTSBLUFF    PTCLDY    57  43  59 E13       30.24F
ALLIANCE       MOCLDY    52  41  66 S8        30.26F
CHADRON        CLEAR     63  40  42 S8        30.20F
KIMBALL        PTCLDY    57  40  52 S13G20    30.28S
SIDNEY         PTCLDY    57  40  52 S13       30.29F
$$

NEZ057>060-069>072-079>082-220800-
SOUTHWEST NEBRASKA

CITY           SKY/WX    TMP DP  RH WIND       PRES   REMARKS
NORTH PLATTE   CLOUDY    50  44  80 SE6       30.30F
IMPERIAL       CLOUDY    59  41  51 S9        30.30S
LEXINGTON      PTCLDY    48  46  91 CALM      30.32R
MCCOOK         MOCLDY    56  44  64 E5        30.30F
OGALLALA       PTCLDY    60  44  55 S5        30.29S
$$

NEZ005>010-023>029-035>040-094-220800-
NORTH CENTRAL NEBRASKA

CITY           SKY/WX    TMP DP  RH WIND       PRES   REMARKS
VALENTINE      CLEAR     48  40  73 CALM      30.28S
AINSWORTH      CLEAR     43  39  86 S9        30.29S
BROKEN BOW     CLEAR     42  39  89 CALM      30.31S
O`NEILL        CLEAR     49  45  87 S3        30.30S
ORD            CLEAR     43  40  89 CALM      30.30S
THEDFORD       PTCLDY    48  41  75 SE3       30.31S
$$

NEZ041-046>049-061>064-073>077-083>087-220800-
SOUTH CENTRAL NEBRASKA

CITY           SKY/WX    TMP DP  RH WIND       PRES   REMARKS
GRAND ISLAND   CLEAR     50  44  80 S3        30.32R
AURORA         CLEAR     50  45  84 SE3       30.31R
HASTINGS       CLEAR     54  45  71 SE5       30.31S
HEBRON         CLEAR     46  43  90 CALM      30.31R
HOLDREGE       PTCLDY    49  43  81 CALM      30.31S
KEARNEY *      PTCLDY    48  41  76 CALM      30.32S
YORK           CLEAR     48  46  93 CALM      30.31S
$$

NEZ011>018-030>034-042>045-220800-
NORTHEAST NEBRASKA

CITY           SKY/WX    TMP DP  RH WIND       PRES   REMARKS
NORFOLK        CLEAR     44  42  93 CALM      30.30R
ALBION         CLEAR     43  40  89 CALM      30.31R
BLAIR          CLEAR     53  47  81 CALM      30.29R
COLUMBUS *     CLEAR     46  43  87 CALM      30.31R
FREMONT        CLEAR     50  47  91 CALM      30.30R
TEKAMAH        CLEAR     47  44  90 CALM      30.29R
WAYNE          CLEAR     41  40  97 CALM      30.30R
$$

NEZ050>053-065>068-078-088>093-220800-
SOUTHEAST NEBRASKA

CITY           SKY/WX    TMP DP  RH WIND       PRES   REMARKS
LINCOLN        CLEAR     48  45  89 CALM      30.30S
OMAHA EPPLEY   CLEAR     52  50  93 CALM      30.29R
BEATRICE       CLEAR     46  44  94 CALM      30.30R
FALLS CITY     CLEAR     49  47  93 CALM      30.28R
NEBRASKA CITY    N/A     56  42  59 CALM      30.29R
PLATTSMOUTH    CLEAR     54  47  78 CALM      30.29R
$$

NEZ044-045-051>053-067-220800-
OMAHA AREA

CITY           SKY/WX    TMP DP  RH WIND       PRES   REMARKS
OMAHA EPPLEY   CLEAR     52  50  93 CALM      30.29R
BLAIR          CLEAR     53  47  81 CALM      30.29R
FREMONT        CLEAR     50  47  91 CALM      30.30R
MILLARD        CLEAR     51  50  95 CALM      30.29R
OFFUTT AFB     CLEAR     48  48 100 NW2       30.29R
PLATTSMOUTH    CLEAR     54  47  78 CALM      30.29R
WAHOO          FAIR      48  45  90 CALM      30.29R
$$



USA.gov is the U.S. government's official web portal to all federal, state and local government web resources and services.